TimeMST,TemperatureF,Dew PointF,Humidity,Sea Level PressureIn,VisibilityMPH,Wind Direction,Wind SpeedMPH,Gust SpeedMPH,PrecipitationIn,Events,Conditions,WindDirDegrees,DateUTC
12:53 AM,46.0,36.0,68,29.88,10.0,SSW,5.8,-,0.00,Rain,Light Rain,210,2011-11-13 07:53:00
1:16 AM,46.4,37.4,71,30.01,10.0,SSW,4.6,-,0.00,Rain,Light Rain,200,2011-11-13 08:16:00
1:48 AM,44.6,39.2,81,30.00,8.0,SSW,4.6,-,0.00,Rain,Light Rain,200,2011-11-13 08:48:00
1:53 AM,44.1,39.0,82,29.87,8.0,South,3.5,-,0.01,Rain,Light Rain,190,2011-11-13 08:53:00
2:30 AM,44.6,39.2,81,29.99,8.0,Calm,Calm,-,0.00,Rain,Light Rain,0,2011-11-13 09:30:00
2:53 AM,43.0,39.9,89,29.86,5.0,Calm,Calm,-,0.02,Rain,Light Rain,0,2011-11-13 09:53:00
3:53 AM,43.0,41.0,93,29.83,8.0,ESE,4.6,-,0.01,,Overcast,110,2011-11-13 10:53:00
4:24 AM,42.8,41.0,93,29.95,8.0,ESE,4.6,-,N/A,,Overcast,110,2011-11-13 11:24:00
4:53 AM,43.0,41.0,93,29.83,6.0,Calm,Calm,-,0.00,Rain,Light Rain,0,2011-11-13 11:53:00
5:11 AM,42.8,41.0,93,29.95,5.0,ESE,3.5,-,0.00,Rain,Light Rain,120,2011-11-13 12:11:00
5:24 AM,42.8,41.0,93,29.96,8.0,South,3.5,-,0.00,,Overcast,170,2011-11-13 12:24:00
5:53 AM,44.1,41.0,89,29.84,7.0,Calm,Calm,-,0.00,,Overcast,0,2011-11-13 12:53:00
6:00 AM,44.6,42.8,93,29.95,5.0,ESE,4.6,-,0.00,Rain,Light Rain,120,2011-11-13 13:00:00
6:14 AM,44.6,42.8,93,29.95,2.5,Calm,Calm,-,0.02,Rain,Light Rain,0,2011-11-13 13:14:00
6:25 AM,44.6,42.8,93,29.95,3.0,Calm,Calm,-,0.02,Rain,Light Rain,0,2011-11-13 13:25:00
6:32 AM,44.6,42.8,93,29.95,5.0,Calm,Calm,-,0.03,Rain,Light Rain,0,2011-11-13 13:32:00
6:48 AM,44.6,42.8,93,29.95,2.5,Calm,Calm,-,0.03,Rain,Light Rain,0,2011-11-13 13:48:00
6:53 AM,44.1,42.1,93,29.84,2.5,Calm,Calm,-,0.04,Rain,Light Rain,0,2011-11-13 13:53:00
7:17 AM,44.6,42.8,93,29.96,2.5,Calm,Calm,-,0.01,Rain,Light Rain,0,2011-11-13 14:17:00
7:53 AM,45.0,43.0,93,29.87,2.5,Calm,Calm,-,0.03,Rain,Light Rain,0,2011-11-13 14:53:00
8:06 AM,44.6,44.6,100,29.98,3.0,Calm,Calm,-,0.01,Rain,Light Rain,0,2011-11-13 15:06:00
8:50 AM,46.4,44.6,93,29.97,5.0,Calm,Calm,-,0.02,Rain,Light Rain,0,2011-11-13 15:50:00
8:53 AM,46.9,45.0,93,29.88,6.0,Calm,Calm,-,0.02,Rain,Light Rain,0,2011-11-13 15:53:00
9:53 AM,50.0,45.0,83,29.91,10.0,South,10.4,16.1,0.00,,Mostly Cloudy,190,2011-11-13 16:53:00
10:53 AM,52.0,43.0,71,29.89,10.0,SSW,9.2,-,N/A,,Mostly Cloudy,200,2011-11-13 17:53:00
11:53 AM,53.1,41.0,64,29.86,10.0,SSW,11.5,-,N/A,,Mostly Cloudy,210,2011-11-13 18:53:00
12:53 PM,55.0,39.9,57,29.83,10.0,SSW,13.8,20.7,N/A,,Mostly Cloudy,210,2011-11-13 19:53:00
1:53 PM,54.0,42.1,64,29.83,10.0,SW,12.7,-,N/A,,Mostly Cloudy,220,2011-11-13 20:53:00
2:53 PM,51.1,42.1,71,29.85,10.0,West,9.2,-,N/A,,Overcast,260,2011-11-13 21:53:00
3:53 PM,51.1,41.0,68,29.86,10.0,WSW,4.6,-,N/A,,Mostly Cloudy,250,2011-11-13 22:53:00
4:53 PM,51.1,39.9,66,29.87,10.0,WSW,6.9,-,N/A,,Scattered Clouds,250,2011-11-13 23:53:00
5:53 PM,46.9,39.9,77,29.88,10.0,WSW,4.6,-,N/A,,Scattered Clouds,240,2011-11-14 00:53:00
6:53 PM,46.9,39.9,77,29.89,10.0,SSW,5.8,-,N/A,,Partly Cloudy,200,2011-11-14 01:53:00
7:53 PM,44.1,39.0,82,29.91,10.0,SSW,4.6,-,N/A,,Clear,200,2011-11-14 02:53:00
8:53 PM,41.0,37.9,89,29.93,10.0,Calm,Calm,-,N/A,,Clear,0,2011-11-14 03:53:00
9:53 PM,39.0,37.0,93,29.93,10.0,South,4.6,-,N/A,,Clear,180,2011-11-14 04:53:00
10:53 PM,39.0,37.0,93,29.91,10.0,South,5.8,-,N/A,,Clear,170,2011-11-14 05:53:00
11:53 PM,39.0,37.0,93,29.91,10.0,South,8.1,-,N/A,,Clear,180,2011-11-14 06:53:00